Regional Weather Roundup
Issued by NWS Mobile, AL

Home | Current Version | Previous Version | Text Only | Print | Product List | Glossary On
Versions: 1 2 3 4 5 6 7 8 9 10 11 12 13 14 15 16 17 18 19 20 21 22 23 24 25 26 27 28 29 30 31 32 33 34 35 36 37 38 39 40 41 42 43 44 45 46 47 48 49 50
000
ASUS44 KMOB 112312
RWRMOB
REGIONAL WEATHER ROUNDUP
NATIONAL WEATHER SERVICE MOBILE AL
500 PM CST MON DEC 11 2017

NOTE: "FAIR" INDICATES FEW OR NO CLOUDS BELOW 12,000 FEET WITH NO
      SIGNIFICANT WEATHER AND/OR OBSTRUCTIONS TO VISIBILITY.

  * THESE STATIONS ARE PART OF THE UNIVERSITY OF SOUTH ALABAMA
    MESONET AND ARE NOT UNDER NWS OR FAA QUALITY CONTROL.

ALZ061>064-120000-
COASTAL ALABAMA

CITY           SKY/WX    TMP DP  RH WIND       PRES   REMARKS
MOBILE REG APT MOCLDY    56  43  61 SW7       30.13S
BROOKLEY FIELD CLEAR     58  46  64 S5        30.13F
USA CAMPUS*    NOT AVBL
DOG RIVER*     NOT AVBL


CITY           SKY/WX    TMP DP  RH WIND       PRES   REMARKS
GULF SHORES    CLEAR     53  44  70 W7        30.14F

$$

ALZ051>060-120000-
INTERIOR SOUTHWEST AND SOUTH CENTRAL ALABAMA

CITY           SKY/WX    TMP DP  RH WIND       PRES   REMARKS
GREENVILLE     CLEAR     58  34  40 S5        30.07F
EVERGREEN      CLEAR     59  37  44 SW5       30.10S
ATMORE*          N/A    N/A N/A N/A S6          N/A
ANDALUSIA/OPP  CLEAR     60  38  43 CALM      30.09F
ANDALUSIA*       N/A     57  39  51 SW5       30.09F
FLORALA APT    CLEAR     55  38  52 SW5       30.13F
FLORALA*         N/A     52  41  66 CALM      30.82F

$$

FLZ001>006-120000-
WESTERN FLORIDA PANHANDLE

CITY           SKY/WX    TMP DP  RH WIND       PRES   REMARKS
PENSACOLA      CLEAR     57  42  57 SW7       30.13F
NAS PENSACOLA  PTCLDY    56  44  64 SW6       30.13F
MILTON         CLOUDY    55  39  54 S9        30.12F
WHTNG S FIELD  CLOUDY    59  41  51 SW3       30.12F


CITY           SKY/WX    TMP DP  RH WIND       PRES   REMARKS
JAY*             N/A     55  39  54 S7        30.11F
DUKE FIELD     PTCLDY    56  42  59 S7        30.12F
CRESTVIEW      CLEAR     55  38  52 SW5       30.13F
VALPARAISO     PTCLDY    58  42  55 W6        30.12F
DESTIN         CLEAR     63  39  41 VRB7      30.13F

$$

MSZ076-079-120000-
INTERIOR SOUTHEAST MISSISSIPPI

CITY           SKY/WX    TMP DP  RH WIND       PRES   REMARKS
LEAKESVILLE*     N/A     61  39  44 SW2       30.11S
AGRICOLA*        N/A     55  46  71 CALM      30.10S

$$

MARINE OBSERVATIONS

STATION/POSITION TIME  TEMP    WIND        PRES    WAVE
                       AIR SEA DIR/SP/G            HT/PER
                 (UTC) (F)     (DEG/KT/KT) (MB)    (FT/S)
PASCAGOULA       2242   57     210/  5/ 10 1020.3F
PETIT BOIS ISLND 2242   58     230/ 17/ 19 1021.3F
KATRINA CUT      2230   58     240/ 15     1020.7F
CEDAR POINT      2230   56     250/  9     1020.3F
E DAUPHIN ISLAND 2200   59     230/  8/ 10 1020.5F
MIDDLE BAY LIGHT 2230   56     210/ 11     1020.7S
USCG MOBILE BAY  2242   59 55  200/  5/  7 1020.0F
STATE DOCKS      2242   60 57              1019.8F
MEAHER PARK      2230   56     180/ 12     1020.0F
WEEKS BAY        2145   58                 1021.0S
FORT MORGAN      2242   59     250/ 15/ 17   N/A
12 S ORANGE BCH  NOT AVBL
PENSACOLA BAY    2242   58 54              1020.5F
64 S DAUPHIN ISL 2250   62 74  250/ 12/ 16 1021.8F   2/ 3
67 S FORT MORGAN 2230   62                 1021.7F

$$

SELECTED LOCATIONS ACROSS THE REGION

CITY           SKY/WX    TMP DP  RH WIND       PRES   REMARKS
NEW ORLEANS    MOCLDY    64  39  39 SW8       30.14F
GULFPORT       CLEAR     60  41  49 SW5       30.12F
PASCAGOULA AP  CLEAR     55  45  68 SW3       30.13F
PASCAGOULA*      N/A     54  48  82 SW3         N/A
HATTIESBURG    CLEAR     60  41  49 SW3       30.11R
LAUREL         CLEAR     57  43  59 SW3       30.10F
MERIDIAN       CLEAR     58  38  47 SW7       30.06F
JACKSON        PTCLDY    58  35  42 S3        30.05F
MONTGOMERY     CLEAR     55  34  45 SW3       30.07F
TROY           CLEAR     56  38  50 S5        30.09S
ASHFORD*         N/A     57  39  51 SW5       30.09F
DOTHAN         CLEAR     57  36  45 SW6       30.13F
PANAMA CITY    CLEAR     58  45  62 SW5       30.13F

$$




USA.gov is the U.S. government's official web portal to all federal, state and local government web resources and services.